K3RTA-6 Weather Reports


Display with metric or nautical units.
time (UTC)temp
F
wind
direction
speed
MPH
gust
MPH
rain 1hr
in
rain 24hr
in
rain mn
in
humidity
%
barometer
mb
20200811101514 74 187 0.0 2.0 0.00 2.71 0.00 100 1012.4
20200811101013 74 168 1.0 3.0 0.00 2.71 0.00 100 1012.4
20200811100512 74 220 1.0 3.0 0.00 2.71 0.00 100 1012.4
20200811100012 74 194 1.0 2.0 0.00 2.71 0.00 100 1012.4
20200811095513 74 119 1.0 2.0 0.00 2.71 0.00 100 1012.5
20200811095014 74 183 0.0 2.0 0.00 2.71 0.00 100 1012.5
20200811094512 74 171 1.0 2.0 0.00 2.71 0.00 100 1012.5
20200811094013 74 145 1.0 3.0 0.00 2.71 0.00 100 1012.5
20200811093513 74 150 1.0 5.0 0.00 2.71 0.00 100 1012.4
20200811093012 74 134 1.0 3.0 0.00 2.71 0.00 100 1012.4
20200811092512 74 166 1.0 3.0 0.00 2.71 0.00 100 1012.5
20200811092015 74 141 0.0 3.0 0.00 2.71 0.00 100 1012.4
20200811091515 74 203 1.0 3.0 0.00 2.71 0.00 100 1012.4
20200811091016 74 193 1.0 3.0 0.00 2.71 0.00 100 1012.3
20200811090512 74 194 1.0 3.0 0.00 2.71 0.00 100 1012.2
20200811090016 74 160 1.0 5.0 0.00 2.71 0.00 100 1012.3
20200811085512 74 149 1.0 3.0 0.00 2.71 0.00 100 1012.3
20200811085014 74 150 0.0 2.0 0.00 2.71 0.00 100 1012.3
20200811084512 73 229 1.0 3.0 0.00 2.71 0.00 100 1012.3
20200811084014 73 182 0.0 1.0 0.00 2.71 0.00 100 1012.3
20200811083512 73 218 0.0 2.0 0.00 2.71 0.00 100 1012.3
20200811083014 73 132 1.0 2.0 0.00 2.71 0.00 100 1012.3
20200811082512 73 163 0.0 1.0 0.00 2.71 0.00 100 1012.4
20200811082013 73 145 0.0 3.0 0.00 2.71 0.00 100 1012.3
20200811081512 73 148 0.0 3.0 0.00 2.71 0.00 100 1012.2
20200811081013 73 143 0.0 1.0 0.00 2.71 0.00 100 1012.4
20200811080512 73 155 0.0 1.0 0.00 2.71 0.00 100 1012.4
20200811080014 73 179 0.0 1.0 0.00 2.71 0.00 100 1012.3
20200811075512 73 234 0.0 1.0 0.00 2.71 0.00 100 1012.4
20200811075016 73 236 0.0 1.0 0.00 2.71 0.00 100 1012.4
20200811074513 73 212 0.0 2.0 0.00 2.71 0.00 100 1012.4
20200811074013 73 259 0.0 1.0 0.00 2.71 0.00 100 1012.5
20200811073512 73 259 0.0 1.0 0.00 2.71 0.00 100 1012.6
20200811073017 73 142 1.0 2.0 0.00 2.71 0.00 100 1012.5
20200811072513 73 236 0.0 2.0 0.00 2.71 0.00 100 1012.6
20200811072016 73 162 0.0 1.0 0.00 2.71 0.00 100 1012.6
20200811071513 73 156 0.0 1.0 0.00 2.71 0.00 100 1012.6
20200811071012 73 176 0.0 1.0 0.00 2.71 0.00 100 1012.6
20200811070512 73 225 1.0 3.0 0.00 2.71 0.00 100 1012.7
20200811070011 73 183 0.0 1.0 0.00 2.71 0.00 100 1012.7
20200811065512 73 135 0.0 1.0 0.00 2.71 0.00 100 1012.8
20200811065013 73 134 0.0 1.0 0.00 2.71 0.00 100 1012.9
20200811064512 73 134 1.0 2.0 0.00 2.71 0.00 100 1013.0
20200811064013 72 155 0.0 1.0 0.00 2.71 0.00 100 1013.1
20200811063512 72 156 0.0 1.0 0.00 2.71 0.00 100 1013.2
20200811063013 72 162 0.0 0.0 0.00 2.71 0.00 100 1013.2
20200811062512 72 162 0.0 0.0 0.00 2.71 0.00 100 1013.3
20200811062016 72 155 0.0 1.0 0.00 2.71 0.00 100 1013.3
20200811061512 72 150 0.0 0.0 0.00 2.71 0.00 100 1013.2
20200811061014 72 167 0.0 1.0 0.00 2.71 0.00 100 1013.2
20200811060512 72 185 0.0 1.0 0.00 2.71 0.00 100 1013.2
20200811060017 72 214 1.0 3.0 0.00 2.71 0.00 100 1013.1
20200811055512 72 226 0.0 1.0 0.00 2.71 0.00 100 1012.9
20200811055012 72 130 0.0 1.0 0.00 2.71 0.00 100 1013.1
20200811054511 72 183 0.0 2.0 0.00 2.71 0.00 100 1013.1
20200811054014 72 234 0.0 1.0 0.00 2.71 0.00 100 1013.2
20200811053512 71 139 0.0 1.0 0.00 2.71 0.00 100 1013.2
20200811053015 71 210 0.0 1.0 0.00 2.71 0.00 100 1013.3
20200811052512 71 210 0.0 1.0 0.00 2.71 0.00 100 1013.4
20200811052013 71 238 0.0 1.0 0.00 2.71 0.00 100 1013.4
20200811051512 70 180 0.0 0.0 0.00 2.71 0.00 100 1013.4
20200811051013 70 161 0.0 0.0 0.00 2.71 0.00 100 1013.5
20200811050512 70 161 0.0 0.0 0.00 2.71 0.00 100 1013.5
20200811050012 70 161 0.0 0.0 0.00 2.71 0.00 100 1013.5
20200811045511 70 161 0.0 0.0 0.00 2.71 0.00 100 1013.4
20200811045041 71 161 0.0 0.0 0.00 2.71 0.00 100 1013.5
20200811044515 71 161 0.0 0.0 0.00 2.71 0.00 100 1013.5
20200811044012 71 161 0.0 0.0 0.00 2.71 0.00 100 1013.5
20200811043512 71 161 0.0 0.0 0.00 2.71 0.00 100 1013.5
20200811043012 71 161 0.0 0.0 0.00 2.71 0.00 100 1013.4
20200811042512 71 161 0.0 0.0 0.00 2.71 0.00 100 1013.4
20200811042015 71 161 0.0 0.0 0.00 2.71 0.00 100 1013.3
20200811041514 71 161 0.0 0.0 0.00 2.71 0.00 100 1013.3
20200811041013 71 161 0.0 0.0 0.00 2.71 0.00 100 1013.2
20200811040521 71 161 0.0 0.0 0.00 2.71 0.00 100 1013.2
20200811040012 71 161 0.0 0.0 0.00 2.71 0.00 100 1013.2
20200811035513 71 161 0.0 0.0 0.00 2.71 2.71 100 1013.2
20200811035013 71 161 0.0 0.0 0.00 2.71 2.71 100 1013.2
20200811034511 71 161 0.0 0.0 0.00 2.71 2.71 100 1013.3
20200811034012 71 161 0.0 0.0 0.00 2.71 2.71 100 1013.4
20200811033512 71 161 0.0 1.0 0.00 2.71 2.71 100 1013.3
20200811033014 71 166 0.0 0.0 0.00 2.71 2.71 100 1013.4
20200811032512 71 166 0.0 0.0 0.00 2.71 2.71 100 1013.4
20200811032013 71 166 0.0 0.0 0.00 2.71 2.71 100 1013.5
20200811031512 72 166 0.0 0.0 0.00 2.71 2.71 100 1013.5
20200811031013 72 167 0.0 0.0 0.00 2.71 2.71 100 1013.5
20200811030512 72 167 0.0 0.0 0.00 2.71 2.71 100 1013.4
20200811030012 72 167 0.0 0.0 0.00 2.71 2.71 100 1013.5
20200811025512 72 167 0.0 0.0 0.00 2.71 2.71 100 1013.4
20200811025013 72 167 0.0 0.0 0.00 2.71 2.71 100 1013.4
20200811024512 72 166 0.0 0.0 0.00 2.71 2.71 100 1013.4
20200811024013 72 159 0.0 1.0 0.00 2.71 2.71 100 1013.4
20200811023513 72 150 0.0 2.0 0.00 2.71 2.71 100 1013.5
20200811023017 72 212 0.0 1.0 0.00 2.71 2.71 100 1013.5
20200811022513 72 212 0.0 1.0 0.00 2.71 2.71 100 1013.5
20200811022016 73 212 0.0 1.0 0.00 2.71 2.71 100 1013.4
20200811021513 73 165 0.0 0.0 0.00 2.71 2.71 100 1013.4
20200811021017 73 217 0.0 0.0 0.00 2.71 2.71 100 1013.4
20200811020512 73 217 0.0 0.0 0.00 2.71 2.71 98 1013.3
20200811020013 73 217 0.0 0.0 0.00 2.71 2.71 97 1013.2
20200811015512 73 217 0.0 0.0 0.00 2.71 2.71 97 1013.2
20200811015015 73 217 0.0 2.0 0.00 2.71 2.71 97 1013.2
20200811014514 73 207 0.0 1.0 0.00 2.71 2.71 97 1013.2
20200811014014 73 207 0.0 1.0 0.00 2.71 2.71 97 1013.2
20200811013512 73 207 0.0 2.0 0.00 2.71 2.71 97 1013.3
20200811013017 73 248 0.0 1.0 0.00 2.71 2.71 97 1013.3
20200811012512 73 248 0.0 1.0 0.00 2.71 2.71 97 1013.2
20200811012015 73 151 0.0 1.0 0.00 2.71 2.71 97 1013.2
20200811011516 73 146 0.0 1.0 0.00 2.71 2.71 97 1013.2
20200811011015 73 246 0.0 1.0 0.00 2.71 2.71 97 1013.1
20200811010512 74 246 0.0 1.0 0.00 2.71 2.71 97 1012.9
20200811010016 74 194 0.0 1.0 0.00 2.71 2.71 96 1012.9
20200811005512 74 224 0.0 2.0 0.00 2.71 2.71 96 1012.8
20200811005017 74 123 0.0 1.0 0.00 2.71 2.71 96 1012.8
20200811004512 74 221 0.0 1.0 0.00 2.71 2.71 96 1012.8
20200811004021 74 246 1.0 2.0 0.00 2.71 2.71 96 1012.8
20200811003512 74 127 0.0 1.0 0.00 2.71 2.71 96 1012.8
20200811003017 74 155 0.0 1.0 0.00 2.71 2.71 95 1012.8
20200811002513 75 165 0.0 0.0 0.00 2.71 2.71 96 1012.9
20200811002016 75 165 0.0 0.0 0.00 2.71 2.71 95 1012.9
20200811001518 75 184 0.0 1.0 0.00 2.71 2.71 95 1012.9
20200811001013 75 203 0.0 0.0 0.00 2.71 2.71 95 1012.8
20200811000512 75 203 0.0 1.0 0.00 2.71 2.71 94 1012.8
20200811000013 76 124 0.0 2.0 0.00 2.71 2.71 94 1012.8
20200810235512 76 217 1.0 3.0 0.00 2.71 2.71 94 1012.8
20200810235013 76 219 0.0 1.0 0.00 2.71 2.71 94 1012.8
20200810234512 76 181 0.0 0.0 0.00 2.71 2.71 94 1012.8
20200810234013 76 181 0.0 0.0 0.00 2.71 2.71 93 1012.7
20200810233512 77 185 1.0 2.0 0.00 2.71 2.71 92 1012.6
20200810233013 77 177 0.0 1.0 0.00 2.71 2.71 93 1012.6
20200810232512 77 237 0.0 3.0 0.00 2.71 2.71 92 1012.5
20200810232013 77 195 0.0 1.0 0.00 2.71 2.71 93 1012.6
20200810231512 78 192 0.0 0.0 0.00 2.71 2.71 92 1012.6
20200810231014 78 192 0.0 2.0 0.00 2.71 2.71 91 1012.7
20200810230512 78 127 0.0 1.0 0.00 2.71 2.71 91 1012.8
20200810230012 78 91 0.0 2.0 0.00 2.71 2.71 89 1012.7
20200810225513 79 91 0.0 1.0 0.00 2.71 2.71 89 1012.6
20200810225012 79 160 1.0 5.0 0.00 2.71 2.71 87 1012.6
20200810224513 79 140 0.0 3.0 0.00 2.71 2.71 87 1012.8
20200810224014 80 155 1.0 2.0 0.00 2.71 2.71 87 1012.8
20200810223512 80 135 1.0 3.0 0.00 2.71 2.71 86 1012.8
20200810223016 81 123 0.0 3.0 0.00 2.71 2.71 86 1012.8
20200810222511 81 126 0.0 3.0 0.00 2.71 2.71 85 1012.9
20200810222014 82 161 1.0 5.0 0.00 2.71 2.71 84 1013.1
20200810221513 82 139 0.0 2.0 0.00 2.71 2.71 84 1013.1
20200810221014 82 124 0.0 2.0 0.00 2.71 2.71 85 1013.1
20200810220511 82 212 0.0 2.0 0.00 2.71 2.71 85 1013.2
20200810220017 81 221 1.0 3.0 0.00 2.71 2.71 84 1013.2
20200810215512 81 118 0.0 1.0 0.00 2.71 2.71 87 1013.4
20200810215013 82 202 1.0 2.0 0.00 2.71 2.71 86 1013.3
20200810214512 82 140 0.0 5.0 0.00 2.71 2.71 88 1013.3
20200810214014 81 164 1.0 2.0 0.00 2.71 2.71 87 1013.3
20200810213513 81 183 1.0 3.0 0.00 2.71 2.71 88 1013.3
20200810213015 81 138 2.0 3.0 0.00 2.71 2.71 88 1013.4
20200810212512 81 120 1.0 3.0 0.00 2.71 2.71 88 1013.4
20200810212013 80 137 1.0 3.0 0.01 2.71 2.71 88 1013.4
20200810211513 80 136 0.0 3.0 0.03 2.71 2.71 89 1013.4
20200810211013 79 118 1.0 3.0 0.13 2.71 2.71 88 1013.5
20200810210511 79 147 0.0 3.0 0.38 2.71 2.71 92 1013.5
20200810210011 78 136 1.0 2.0 0.52 2.71 2.71 92 1013.5
20200810205511 77 101 0.0 1.0 0.67 2.71 2.71 94 1013.6
20200810205014 76 101 0.0 1.0 0.91 2.71 2.71 95 1013.6
20200810204517 75 59 0.0 1.0 1.30 2.71 2.71 96 1013.7
20200810204017 74 59 0.0 2.0 1.70 2.71 2.71 96 1013.8
20200810203521 74 58 2.0 3.0 2.04 2.71 2.71 95 1013.8
20200810203017 73 127 0.0 1.0 2.23 2.71 2.71 97 1013.7
20200810202511 73 128 0.0 1.0 2.42 2.71 2.71 97 1013.7
20200810202013 72 128 0.0 1.0 2.58 2.70 2.70 100 1013.8
20200810201516 71 145 1.0 5.0 2.61 2.68 2.68 100 1013.7
20200810201012 69 195 1.0 3.0 2.58 2.58 2.58 97 1014.0
20200810200512 69 257 1.0 2.0 2.33 2.33 2.33 95 1014.2
20200810200012 69 168 1.0 3.0 2.19 2.19 2.19 93 1014.1
20200810195511 69 242 2.0 5.0 2.04 2.04 2.04 91 1013.9
20200810195012 70 253 2.0 9.0 1.80 1.80 1.80 86 1014.5
20200810194517 72 266 3.0 7.0 1.41 1.41 1.41 86 1015.3
20200810194012 75 171 7.0 18.0 1.01 1.01 1.01 88 1014.9
20200810193511 75 87 3.0 8.0 0.67 0.67 0.67 92 1014.2
20200810193014 75 129 2.0 10.0 0.48 0.48 0.48 84 1014.1
20200810192514 77 7 4.0 12.0 0.29 0.29 0.29 84 1014.0
20200810192016 79 6 1.0 5.0 0.12 0.12 0.12 87 1014.3
20200810191512 81 43 2.0 3.0 0.07 0.07 0.07 82 1014.0
20200810191014 83 51 2.0 5.0 0.00 0.00 0.00 77 1013.9
20200810190511 83 86 2.0 3.0 0.00 0.00 0.00 76 1014.0
20200810190020 83 92 1.0 3.0 0.00 0.00 0.00 76 1014.1
20200810185511 83 77 2.0 3.0 0.00 0.00 0.00 76 1014.1
20200810185014 83 28 2.0 6.0 0.00 0.00 0.00 74 1014.1
20200810184512 83 104 3.0 10.0 0.00 0.00 0.00 75 1014.3
20200810184015 84 12 1.0 3.0 0.00 0.00 0.00 73 1014.3
20200810183513 84 37 1.0 3.0 0.00 0.00 0.00 74 1014.3
20200810183015 85 269 2.0 3.0 0.00 0.00 0.00 72 1014.2
20200810182511 86 125 2.0 7.0 0.00 0.00 0.00 71 1014.2
20200810182013 87 313 3.0 6.0 0.00 0.00 0.00 67 1014.2
20200810181511 89 134 2.0 3.0 0.00 0.00 0.00 65 1014.2
20200810181015 89 127 0.0 2.0 0.00 0.00 0.00 62 1014.1
20200810180512 90 230 1.0 3.0 0.00 0.00 0.00 64 1014.1
20200810180028 90 132 1.0 2.0 0.00 0.00 0.00 62 1014.2
20200810175519 90 146 2.0 5.0 0.00 0.00 0.00 61 1014.3
20200810175016 90 138 2.0 7.0 0.00 0.00 0.00 60 1014.4
20200810174515 90 125 0.0 3.0 0.00 0.00 0.00 61 1014.3
20200810174012 90 158 1.0 3.0 0.00 0.00 0.00 59 1014.5
20200810173513 89 255 0.0 2.0 0.00 0.00 0.00 61 1014.6
20200810173020 89 281 1.0 2.0 0.00 0.00 0.00 60 1014.7
20200810172511 88 131 1.0 2.0 0.00 0.00 0.00 65 1014.7
20200810172014 88 129 1.0 3.0 0.00 0.00 0.00 61 1014.7
20200810171512 89 160 2.0 3.0 0.00 0.00 0.00 61 1014.8
20200810171014 89 117 0.0 3.0 0.00 0.00 0.00 65 1014.9
20200810170511 89 100 1.0 3.0 0.00 0.00 0.00 60 1014.9
20200810170011 89 178 1.0 3.0 0.00 0.00 0.00 63 1015.0
20200810165514 89 120 1.0 3.0 0.00 0.00 0.00 64 1014.9
20200810165012 89 151 2.0 3.0 0.00 0.00 0.00 62 1015.0
20200810164515 89 320 2.0 3.0 0.00 0.00 0.00 64 1015.0
20200810164012 88 154 2.0 5.0 0.00 0.00 0.00 63 1015.1
20200810163511 89 106 2.0 5.0 0.00 0.00 0.00 61 1015.2
20200810163014 89 223 3.0 8.0 0.00 0.00 0.00 63 1015.2
20200810162511 89 125 2.0 3.0 0.00 0.00 0.00 64 1015.2
20200810162014 89 111 2.0 3.0 0.00 0.00 0.00 64 1015.3
20200810161512 89 130 2.0 3.0 0.00 0.00 0.00 64 1015.3
20200810161014 89 140 2.0 3.0 0.00 0.00 0.00 65 1015.3
20200810160511 88 235 1.0 3.0 0.00 0.00 0.00 65 1015.3
20200810160013 88 107 2.0 5.0 0.00 0.00 0.00 62 1015.4
20200810155512 89 127 2.0 5.0 0.00 0.00 0.00 63 1015.4
20200810155012 89 68 1.0 2.0 0.00 0.00 0.00 66 1015.4
20200810154511 88 123 1.0 2.0 0.00 0.00 0.00 67 1015.4
20200810154014 87 74 1.0 2.0 0.00 0.00 0.00 70 1015.4
20200810153511 87 150 0.0 2.0 0.00 0.00 0.00 68 1015.6
20200810153013 88 243 0.0 1.0 0.00 0.00 0.00 68 1015.6
20200810152512 89 250 0.0 2.0 0.00 0.00 0.00 66 1015.6
20200810152013 88 186 1.0 3.0 0.00 0.00 0.00 66 1015.6
20200810151512 88 247 1.0 3.0 0.00 0.00 0.00 66 1015.5
20200810151013 87 169 1.0 3.0 0.00 0.00 0.00 70 1015.5
20200810150512 87 117 2.0 3.0 0.00 0.00 0.00 68 1015.5
20200810150012 87 144 1.0 3.0 0.00 0.00 0.00 69 1015.6
20200810145511 87 351 1.0 2.0 0.00 0.00 0.00 69 1015.5
20200810145015 87 358 1.0 2.0 0.00 0.00 0.00 70 1015.6
20200810144512 87 229 1.0 2.0 0.00 0.00 0.00 71 1015.6
20200810144012 86 127 1.0 2.0 0.00 0.00 0.00 71 1015.6
20200810143512 85 20 0.0 2.0 0.00 0.00 0.00 74 1015.6
20200810143012 85 352 2.0 3.0 0.00 0.00 0.00 74 1015.7
20200810142511 85 16 2.0 3.0 0.00 0.00 0.00 73 1015.7
20200810142013 85 89 1.0 3.0 0.00 0.00 0.00 74 1015.7
20200810141511 86 349 0.0 1.0 0.00 0.00 0.00 75 1015.7
20200810141014 85 238 0.0 1.0 0.00 0.00 0.00 76 1015.8
20200810140512 85 286 2.0 3.0 0.00 0.00 0.00 73 1015.8
20200810140011 85 197 1.0 3.0 0.00 0.00 0.00 76 1015.7
20200810135512 84 307 0.0 3.0 0.00 0.00 0.00 77 1015.7
20200810135013 85 178 2.0 3.0 0.00 0.00 0.00 77 1015.8
20200810134512 85 221 1.0 3.0 0.00 0.00 0.00 78 1015.8
20200810134016 84 197 1.0 3.0 0.00 0.00 0.00 78 1015.7
20200810133511 84 156 1.0 2.0 0.00 0.00 0.00 79 1015.8
20200810133013 84 94 1.0 1.0 0.00 0.00 0.00 78 1015.7
20200810132511 84 174 0.0 1.0 0.00 0.00 0.00 80 1015.8
20200810132012 84 217 0.0 0.0 0.00 0.00 0.00 80 1015.8
20200810131511 83 217 0.0 1.0 0.00 0.00 0.00 83 1015.8
20200810131012 82 141 0.0 3.0 0.00 0.00 0.00 84 1015.7
20200810130511 81 134 0.0 3.0 0.00 0.00 0.00 84 1015.9
20200810130016 81 139 1.0 3.0 0.00 0.00 0.00 83 1015.8
20200810125512 81 138 1.0 3.0 0.00 0.00 0.00 84 1015.8
20200810125013 81 195 1.0 3.0 0.00 0.00 0.00 85 1015.8
20200810124513 81 251 1.0 3.0 0.00 0.00 0.00 84 1015.8
20200810124013 81 115 1.0 2.0 0.00 0.00 0.00 84 1015.8
20200810123512 80 195 0.0 1.0 0.00 0.00 0.00 85 1015.8
20200810123013 79 260 0.0 2.0 0.00 0.00 0.00 86 1015.8
20200810122511 79 144 0.0 2.0 0.00 0.00 0.00 87 1015.7
20200810122012 79 187 1.0 3.0 0.00 0.00 0.00 87 1015.7
20200810121511 79 164 0.0 2.0 0.00 0.00 0.00 86 1015.8
20200810121014 79 213 0.0 2.0 0.00 0.00 0.00 86 1015.8
20200810120511 78 191 0.0 0.0 0.00 0.00 0.00 88 1015.8
20200810120016 77 170 0.0 1.0 0.00 0.00 0.00 89 1015.7
20200810115511 77 215 0.0 2.0 0.00 0.00 0.00 89 1015.7
20200810115014 76 126 0.0 1.0 0.00 0.00 0.00 90 1015.8
20200810114512 75 126 0.0 1.0 0.00 0.00 0.00 91 1015.8
20200810114015 74 126 0.0 1.0 0.00 0.00 0.00 92 1015.8
20200810113511 74 149 0.0 2.0 0.00 0.00 0.00 93 1015.8
20200810113016 73 233 0.0 1.0 0.00 0.00 0.00 93 1015.8
20200810112513 72 238 0.0 0.0 0.00 0.00 0.00 94 1015.8
20200810112016 72 238 0.0 1.0 0.00 0.00 0.00 96 1015.8
20200810111517 71 238 0.0 0.0 0.00 0.00 0.00 99 1015.7
20200810111012 70 238 0.0 1.0 0.00 0.00 0.00 100 1015.6
20200810110511 70 238 0.0 1.0 0.00 0.00 0.00 100 1015.6
20200810110012 69 238 0.0 0.0 0.00 0.00 0.00 100 1015.5
20200810105511 69 238 0.0 0.0 0.00 0.00 0.00 100 1015.6
20200810105012 69 238 0.0 0.0 0.00 0.00 0.00 100 1015.7
20200810104511 69 238 0.0 0.0 0.00 0.00 0.00 100 1015.7
20200810104012 69 238 0.0 0.0 0.00 0.00 0.00 100 1015.6
20200810103511 69 238 0.0 0.0 0.00 0.00 0.00 100 1015.7
20200810103012 69 238 0.0 0.0 0.00 0.00 0.00 100 1015.7
20200810102511 69 238 0.0 0.0 0.00 0.00 0.00 100 1015.7
20200810102012 69 238 0.0 0.0 0.00 0.00 0.00 100 1015.6